Theta_e
338 338 335 331 333 334 332 329 328 326 325 323 320 318 318 316 315 314 316 317 317 317 318 318 317 316 315 314 314 313 313 313
337 335 330 327 328 328 327 326 325 324 322 320 318 317 316 314 313 312 312 313 313 313 314 314 312 312 311 311 311 310 310 308
328 329 325 326 325 325 324 325 324 323 321 319 317 316 313 313 312 311 310 310 310 310 310 309 309 310 309 307 309 310 307 309
322 325 325 324 323 323 322 322 322 321 320 317 316 313 312 310 310 310 309 308 308 308 307 308 308 308 306 307 309 309 307 308
323 322 322 323 322 322 322 321 320 320 319 317 315 313 309 309 310 309 307 306 307 307 307 307 308 307 306 307 309 309 307 307
319 316 318 320 321 321 321 321 321 320 318 317 315 313 311 311 309 308 306 305 305 307 307 307 307 306 306 306 307 308 308 307
318 318 319 319 320 321 321 321 321 320 317 316 315 314 311 310 308 306 305 305 305 306 306 306 306 305 305 304 305 306 306 306
320 318 318 319 320 321 321 320 320 319 317 316 315 315 311 310 309 307 305 304 304 305 305 304 304 304 304 303 303 303 303 303
315 317 318 319 320 320 320 319 319 319 318 317 315 313 311 310 310 308 306 305 304 304 304 303 303 302 301 301 301 301 300 299
314 313 317 319 319 318 318 318 317 318 318 316 314 313 311 311 310 308 306 304 303 304 303 303 301 300 300 299 298 297 297 296
310 312 315 315 316 318 318 318 317 316 316 316 315 314 313 312 309 307 305 304 303 303 302 301 300 298 297 297 296 295 294 294
309 310 313 315 316 316 318 318 317 316 314 314 314 314 313 312 308 306 305 304 303 303 301 300 298 296 296 295 294 294 293 292
306 308 311 313 315 315 315 316 315 314 313 312 312 312 312 309 306 305 304 304 303 302 301 299 296 295 294 294 292 292 292 291
305 307 308 310 312 312 313 313 313 312 312 311 310 310 310 309 307 305 303 303 302 300 299 297 295 293 292 292 291 290 290 289
303 306 307 309 309 309 310 311 311 311 311 309 308 308 307 305 304 303 302 301 300 297 296 294 293 292 291 290 290 289 288 288
308 307 305 308 309 309 308 308 308 309 309 307 306 305 304 303 302 300 299 298 295 294 293 292 291 290 289 289 288 287 288 288
308 307 306 307 308 308 308 308 307 307 307 307 305 304 301 299 297 297 296 294 294 292 291 290 290 289 288 288 288 287 287 286
306 306 306 306 307 307 306 306 306 305 304 304 303 301 298 296 295 294 293 292 292 290 290 289 289 288 288 288 287 286 285 280
306 304 304 304 306 307 306 305 304 303 302 301 300 297 295 294 293 291 290 290 288 288 288 288 288 287 288 287 285 285 281 279
Wind_Speed
32 33 32 37 42 44 42 38 35 32 28 22 16 13 11 9 8 8 10 11 11 13 14 13 13 13 12 10 9 9 8 8
32 25 34 35 40 46 46 42 37 35 32 31 24 20 15 12 10 8 9 12 11 11 12 13 13 13 11 11 11 10 8 7
6 24 31 39 43 43 41 41 37 33 31 28 26 23 18 16 13 10 9 11 10 11 12 12 12 12 10 12 16 13 7 11
6 14 27 32 36 33 28 32 32 30 25 21 17 19 16 17 15 13 12 12 11 12 12 13 13 12 12 12 16 16 9 9
5 7 15 20 21 24 28 29 27 23 23 22 25 27 21 16 18 15 12 13 14 13 14 13 14 12 13 12 14 17 17 17
12 10 18 21 26 26 27 25 23 22 23 22 24 25 23 17 18 15 13 12 13 12 14 15 16 14 13 13 14 15 18 16
14 19 24 22 20 20 23 23 23 22 22 22 25 26 24 20 18 17 16 15 15 14 13 13 13 14 15 14 13 14 15 14
7 14 18 21 21 23 24 25 24 23 24 21 23 26 27 23 22 22 20 18 17 16 15 14 13 13 13 13 14 14 14 14
7 5 14 21 22 22 20 23 20 22 22 21 21 24 23 23 23 24 24 22 20 18 16 14 14 13 12 12 12 12 12 13
8 9 10 11 12 16 17 16 13 18 21 21 20 22 22 23 24 26 26 22 20 20 18 15 14 14 13 12 12 11 11 12
6 7 8 9 8 9 13 13 13 12 15 21 22 22 22 22 25 29 29 24 23 23 21 18 16 13 12 13 13 13 12 13
7 7 10 12 10 7 6 11 14 18 16 15 20 22 21 21 27 30 30 29 28 26 24 21 18 17 16 15 14 15 13 14
8 7 11 14 14 12 8 9 14 16 16 17 17 19 21 20 23 28 29 33 32 30 27 23 21 20 19 19 19 17 15 15
2 6 8 13 11 9 6 7 11 13 16 18 19 21 21 23 25 26 29 34 34 30 27 26 24 22 21 19 18 20 21 16
7 6 8 11 10 8 6 9 13 16 18 21 24 26 25 23 26 28 33 33 31 29 27 26 22 22 18 19 19 20 20 16
11 7 5 12 11 10 8 5 7 12 19 20 23 24 23 23 26 31 31 31 28 27 26 23 21 20 20 22 21 19 14 11
8 7 8 11 14 12 9 5 6 8 12 19 21 24 23 25 28 29 30 31 31 29 26 26 25 24 22 21 17 14 10 12
5 5 4 1 2 3 3 4 7 8 10 12 17 20 22 26 28 28 32 33 30 28 27 27 25 23 19 16 16 13 12 15
3 2 3 2 2 2 4 4 7 9 9 10 13 17 22 24 26 26 25 27 26 26 26 23 21 17 17 18 19 17 16 16
Wind_Direction
206 200 180 177 177 177 176 181 184 185 183 181 186 191 202 213 217 216 209 212 208 201 206 214 221 220 213 200 194 177 172 178
209 186 169 164 168 172 178 180 180 181 178 172 176 182 194 199 206 215 211 209 209 209 221 219 210 212 204 190 168 161 148 166
198 159 165 170 169 172 174 177 178 184 186 182 179 182 186 197 197 208 218 213 214 216 214 204 198 213 200 193 180 167 150 167
167 160 172 170 171 170 162 170 176 182 183 173 175 177 177 179 189 212 213 210 206 199 207 206 206 211 198 192 185 180 157 146
56 120 136 151 149 155 163 171 176 180 181 183 188 188 175 192 204 217 210 209 208 205 212 212 204 197 191 189 185 189 175 156
62 66 88 125 139 152 165 171 178 184 195 200 201 199 198 205 206 206 210 208 211 216 212 211 202 198 195 194 188 181 179 175
85 87 100 115 138 156 170 178 192 198 197 201 208 207 196 193 202 208 211 210 208 209 211 209 208 201 192 190 187 179 179 185
78 108 117 133 155 169 179 191 197 199 201 208 215 215 205 205 213 213 207 207 207 203 203 204 210 214 206 194 187 182 176 172
76 72 127 146 166 176 186 201 204 203 209 217 217 212 210 217 222 223 216 214 212 201 201 201 209 206 197 193 187 179 173 163
89 116 128 184 191 205 209 211 204 208 215 219 216 214 221 225 227 225 218 215 205 201 200 202 201 203 200 193 179 161 163 150
107 112 126 113 107 197 215 225 224 213 215 220 223 228 234 240 227 219 214 209 204 203 200 199 198 192 190 186 169 157 155 144
173 169 129 128 122 124 187 209 223 226 223 224 227 233 237 239 227 219 214 204 199 199 197 194 192 183 183 179 167 160 155 144
198 158 145 136 139 142 164 199 222 226 231 234 230 229 232 228 224 218 211 200 197 197 193 190 185 184 182 182 170 166 159 154
174 145 148 126 127 132 159 205 226 233 238 241 235 231 228 227 220 217 204 197 192 192 191 186 181 183 183 181 179 169 159 151
162 176 175 142 138 132 171 202 222 237 243 243 232 223 223 226 213 204 195 193 190 186 185 179 178 178 181 178 180 165 152 151
166 179 165 171 170 180 184 192 224 236 240 246 242 233 230 225 213 193 187 182 176 176 172 169 169 166 169 172 171 161 161 165
173 177 181 183 189 196 195 209 257 278 275 272 262 244 223 201 192 187 184 177 174 175 176 173 170 173 178 184 181 180 178 175
103 116 108 134 193 255 243 242 276 288 286 272 249 222 205 193 185 180 180 176 177 181 178 180 177 177 180 184 178 180 176 170
90 55 31 47 291 211 261 283 295 303 280 249 225 212 195 185 181 178 173 173 166 174 177 179 184 179 173 173 175 175 166 161